"read_dt","SO2 (ppb)","flags","PMT voltage (V)","lamp voltage (V)","lamp intensity (Hz)","internal temp (C)","react chamber temp (C)","sample flow (l/min)","pres (mmHg)","SO2 bkg (ppb)","SO2 coefficient"
2014-07-01 00:00:00,1773E-3,5C000000,-0724,0834,12190,027.2,045.5,0.485,734.8,01.18,0.508
2014-07-01 00:01:00,1858E-3,5C000000,-0724,0835,12128,027.2,045.4,0.485,734.8,01.18,0.508
2014-07-01 00:02:00,1738E-3,5C000000,-0724,0835,12174,027.2,045.4,0.485,734.8,01.18,0.508
2014-07-01 00:03:00,1904E-3,5C000000,-0724,0837,12318,027.2,045.5,0.485,734.7,01.18,0.508
2014-07-01 00:04:00,1811E-3,5C000000,-0724,0835,12262,027.2,045.5,0.485,734.8,01.18,0.508
2014-07-01 00:05:00,1715E-3,5C000000,-0724,0834,12097,027.2,045.5,0.485,734.8,01.18,0.508
2014-07-01 00:06:00,1782E-3,5C000000,-0724,0836,12141,027.2,045.5,0.485,734.8,01.18,0.508
2014-07-01 00:07:00,1871E-3,5C000000,-0724,0835,12234,027.3,045.5,0.485,734.8,01.18,0.508
2014-07-01 00:08:00,1853E-3,5C000000,-0724,0835,12079,027.3,045.5,0.485,734.9,01.18,0.508
2014-07-01 00:09:00,1709E-3,5C000000,-0724,0834,12085,027.3,045.5,0.485,734.8,01.18,0.508
2014-07-01 00:10:00,1815E-3,5C000000,-0724,0835,12210,027.3,045.5,0.485,734.9,01.18,0.508
2014-07-01 00:11:00,1870E-3,5C000000,-0724,0835,12187,027.3,045.5,0.485,734.8,01.18,0.508
2014-07-01 00:12:00,1789E-3,5C000000,-0724,0834,12014,027.3,045.5,0.485,734.8,01.18,0.508
2014-07-01 00:13:00,1784E-3,5C000000,-0724,0835,12194,027.3,045.5,0.485,734.9,01.18,0.508
2014-07-01 00:14:00,1785E-3,5C000000,-0724,0836,12111,027.3,045.5,0.485,734.9,01.18,0.508
2014-07-01 00:15:00,1817E-3,5C000000,-0724,0834,11914,027.3,045.5,0.485,734.9,01.18,0.508
2014-07-01 00:16:00,1721E-3,5C000000,-0724,0835,12184,027.3,045.5,0.485,734.9,01.18,0.508
2014-07-01 00:17:00,1852E-3,5C000000,-0724,0835,12181,027.3,045.5,0.485,734.9,01.18,0.508
2014-07-01 00:18:00,2008E-3,5C000000,-0724,0835,11996,027.3,045.5,0.485,734.9,01.18,0.508
2014-07-01 00:19:00,1756E-3,5C000000,-0724,0835,12051,027.3,045.5,0.485,735.0,01.18,0.508
2014-07-01 00:20:00,1706E-3,5C000000,-0724,0835,12064,027.3,045.5,0.485,734.9,01.18,0.508
2014-07-01 00:21:00,1970E-3,5C000000,-0724,0835,12210,027.3,045.5,0.485,735.0,01.18,0.508
2014-07-01 00:22:00,1867E-3,5C000000,-0724,0835,12215,027.3,045.5,0.485,735.0,01.18,0.508
2014-07-01 00:23:00,1883E-3,5C000000,-0724,0835,12027,027.3,045.5,0.485,734.9,01.18,0.508
2014-07-01 00:24:00,1896E-3,5C000000,-0724,0835,12217,027.4,045.5,0.485,734.9,01.18,0.508
2014-07-01 00:25:00,1793E-3,5C000000,-0724,0836,12129,027.4,045.5,0.484,735.0,01.18,0.508
2014-07-01 00:26:00,1879E-3,5C000000,-0724,0836,12181,027.4,045.5,0.485,735.0,01.18,0.508
2014-07-01 00:27:00,1734E-3,5C000000,-0724,0835,12218,027.4,045.5,0.485,735.0,01.18,0.508
2014-07-01 00:28:00,1885E-3,5C000000,-0724,0835,12127,027.4,045.5,0.484,735.0,01.18,0.508
2014-07-01 00:29:00,1774E-3,5C000000,-0724,0835,11971,027.4,045.5,0.485,735.0,01.18,0.508
2014-07-01 00:30:00,1843E-3,5C000000,-0724,0836,12165,027.4,045.5,0.485,735.0,01.18,0.508
2014-07-01 00:31:00,1942E-3,5C000000,-0724,0835,12033,027.4,045.5,0.484,735.0,01.18,0.508
2014-07-01 00:32:00,1811E-3,5C000000,-0724,0834,12223,027.4,045.5,0.485,735.0,01.18,0.508
2014-07-01 00:33:00,1854E-3,5C000000,-0724,0834,12144,027.4,045.5,0.485,735.0,01.18,0.508
2014-07-01 00:34:00,1885E-3,5C000000,-0724,0835,12185,027.4,045.5,0.484,735.0,01.18,0.508
2014-07-01 00:35:00,1849E-3,5C000000,-0724,0835,12036,027.4,045.5,0.484,735.0,01.18,0.508
2014-07-01 00:36:00,1779E-3,5C000000,-0724,0834,12170,027.4,045.5,0.485,735.1,01.18,0.508
2014-07-01 00:37:00,1806E-3,5C000000,-0724,0835,12150,027.4,045.5,0.485,735.0,01.18,0.508
2014-07-01 00:38:00,1856E-3,5C000000,-0724,0835,12203,027.5,045.5,0.484,735.0,01.18,0.508
2014-07-01 00:39:00,1840E-3,5C000000,-0724,0836,12044,027.5,045.5,0.485,735.0,01.18,0.508
2014-07-01 00:40:00,1753E-3,5C000000,-0724,0835,12287,027.5,045.5,0.485,735.0,01.18,0.508
2014-07-01 00:41:00,1882E-3,5C000000,-0724,0836,12131,027.5,045.5,0.484,735.0,01.18,0.508
2014-07-01 00:42:00,1827E-3,5C000000,-0724,0835,12280,027.5,045.5,0.485,735.0,01.18,0.508
2014-07-01 00:43:00,1869E-3,5C000000,-0724,0835,12120,027.4,045.5,0.485,735.0,01.18,0.508
2014-07-01 00:44:00,1833E-3,5C000000,-0724,0835,12023,027.4,045.5,0.485,735.1,01.18,0.508
2014-07-01 00:45:00,1788E-3,5C000000,-0724,0834,12125,027.4,045.5,0.484,735.1,01.18,0.508
2014-07-01 00:46:00,1921E-3,5C000000,-0724,0835,12067,027.4,045.5,0.485,734.9,01.18,0.508
2014-07-01 00:47:00,1703E-3,5C000000,-0724,0835,12128,027.4,045.5,0.485,735.0,01.18,0.508
2014-07-01 00:48:00,1946E-3,5C000000,-0724,0835,12248,027.4,045.5,0.484,735.0,01.18,0.508
2014-07-01 00:49:00,1914E-3,5C000000,-0724,0835,12109,027.4,045.5,0.484,735.1,01.18,0.508
2014-07-01 00:50:00,1992E-3,5C000000,-0724,0835,12224,027.4,045.5,0.485,735.0,01.18,0.508
2014-07-01 00:51:00,1902E-3,5C000000,-0724,0835,12142,027.4,045.4,0.485,735.1,01.18,0.508
2014-07-01 00:52:00,1848E-3,5C000000,-0724,0835,12146,027.4,045.5,0.484,735.1,01.18,0.508
2014-07-01 00:53:00,1778E-3,5C000000,-0724,0835,12280,027.4,045.5,0.485,735.0,01.18,0.508
2014-07-01 00:54:00,1795E-3,5C000000,-0724,0834,12124,027.4,045.5,0.485,735.1,01.18,0.508
2014-07-01 00:55:00,1844E-3,5C000000,-0724,0836,11846,027.4,045.5,0.485,735.1,01.18,0.508
2014-07-01 00:56:00,1707E-3,5C000000,-0724,0835,12279,027.4,045.5,0.484,735.1,01.18,0.508
2014-07-01 00:57:00,1835E-3,5C000000,-0724,0835,11918,027.4,045.5,0.485,735.0,01.18,0.508
2014-07-01 00:58:00,1790E-3,5C000000,-0724,0835,12040,027.4,045.5,0.485,735.0,01.18,0.508
2014-07-01 00:59:00,1867E-3,5C000000,-0724,0836,12274,027.4,045.5,0.485,735.0,01.18,0.508
2014-07-01 01:00:00,1727E-3,5C000000,-0724,0835,12181,027.4,045.5,0.485,735.1,01.18,0.508
2014-07-01 01:01:00,1886E-3,5C000000,-0724,0836,12082,027.4,045.5,0.485,735.0,01.18,0.508
2014-07-01 01:02:00,1858E-3,5C000000,-0724,0836,12264,027.4,045.5,0.485,735.0,01.18,0.508
2014-07-01 01:03:00,1902E-3,5C000000,-0724,0835,12200,027.4,045.5,0.484,735.0,01.18,0.508
2014-07-01 01:04:00,1740E-3,5C000000,-0724,0836,12233,027.4,045.5,0.485,735.1,01.18,0.508
2014-07-01 01:05:00,1828E-3,5C000000,-0724,0835,12204,027.4,045.5,0.485,735.0,01.18,0.508
2014-07-01 01:06:00,1819E-3,5C000000,-0724,0835,11955,027.4,045.5,0.485,735.0,01.18,0.508
2014-07-01 01:07:00,1733E-3,5C000000,-0724,0835,12317,027.4,045.5,0.484,735.1,01.18,0.508
2014-07-01 01:08:00,1802E-3,5C000000,-0724,0835,12181,027.4,045.5,0.485,735.1,01.18,0.508
2014-07-01 01:09:00,1843E-3,5C000000,-0724,0835,12154,027.4,045.5,0.485,735.1,01.18,0.508
2014-07-01 01:10:00,2045E-3,5C000000,-0724,0834,12103,027.4,045.5,0.484,735.0,01.18,0.508
2014-07-01 01:11:00,1790E-3,5C000000,-0724,0836,12228,027.4,045.5,0.485,735.1,01.18,0.508
2014-07-01 01:12:00,1913E-3,5C000000,-0724,0834,12073,027.4,045.5,0.485,735.1,01.18,0.508
2014-07-01 01:13:00,1935E-3,5C000000,-0724,0836,12148,027.4,045.5,0.484,735.1,01.18,0.508
2014-07-01 01:14:00,1904E-3,5C000000,-0724,0835,12343,027.4,045.5,0.485,735.1,01.18,0.508
2014-07-01 01:15:00,1900E-3,5C000000,-0724,0834,12109,027.4,045.5,0.485,735.1,01.18,0.508
2014-07-01 01:16:00,1906E-3,5C000000,-0724,0835,12053,027.4,045.5,0.485,735.2,01.18,0.508
2014-07-01 01:17:00,1814E-3,5C000000,-0724,0836,12259,027.4,045.5,0.485,735.1,01.18,0.508
2014-07-01 01:18:00,1869E-3,5C000000,-0724,0836,11987,027.4,045.5,0.485,735.1,01.18,0.508
2014-07-01 01:19:00,1719E-3,5C000000,-0724,0835,12053,027.4,045.5,0.485,735.1,01.18,0.508
2014-07-01 01:20:00,1816E-3,5C000000,-0724,0834,12166,027.4,045.5,0.484,735.1,01.18,0.508
2014-07-01 01:21:00,1862E-3,5C000000,-0724,0834,12035,027.4,045.5,0.485,735.1,01.18,0.508
2014-07-01 01:22:00,1894E-3,5C000000,-0724,0835,12308,027.4,045.5,0.485,735.1,01.18,0.508
2014-07-01 01:23:00,1872E-3,5C000000,-0724,0835,12016,027.3,045.5,0.485,735.1,01.18,0.508
2014-07-01 01:24:00,1764E-3,5C000000,-0724,0835,12101,027.3,045.5,0.485,735.1,01.18,0.508
2014-07-01 01:25:00,1694E-3,5C000000,-0724,0836,12194,027.3,045.5,0.485,735.2,01.18,0.508
2014-07-01 01:26:00,1771E-3,5C000000,-0724,0835,12257,027.3,045.5,0.485,735.1,01.18,0.508
2014-07-01 01:27:00,1926E-3,5C000000,-0724,0835,12094,027.3,045.5,0.485,735.1,01.18,0.508
2014-07-01 01:28:00,1896E-3,5C000000,-0724,0836,12256,027.3,045.5,0.485,735.1,01.18,0.508
2014-07-01 01:29:00,1860E-3,5C000000,-0724,0835,12036,027.2,045.5,0.485,735.1,01.18,0.508
2014-07-01 01:30:00,1906E-3,5C000000,-0724,0835,12070,027.2,045.5,0.485,735.1,01.18,0.508
2014-07-01 01:31:00,1725E-3,5C000000,-0724,0834,12185,027.2,045.5,0.485,735.1,01.18,0.508
2014-07-01 01:32:00,1711E-3,5C000000,-0724,0835,12129,027.2,045.5,0.485,735.1,01.18,0.508
2014-07-01 01:33:00,1810E-3,5C000000,-0724,0835,11909,027.2,045.5,0.485,735.0,01.18,0.508
2014-07-01 01:34:00,1875E-3,5C000000,-0724,0835,12114,027.2,045.5,0.485,735.1,01.18,0.508
2014-07-01 01:35:00,1844E-3,5C000000,-0724,0835,12232,027.1,045.5,0.485,735.2,01.18,0.508
2014-07-01 01:36:00,1848E-3,5C000000,-0724,0835,12089,027.1,045.5,0.486,735.1,01.18,0.508
2014-07-01 01:37:00,1869E-3,5C000000,-0724,0835,12256,027.1,045.5,0.485,735.1,01.18,0.508
2014-07-01 01:38:00,1711E-3,5C000000,-0724,0836,12308,027.1,045.5,0.485,735.1,01.18,0.508
2014-07-01 01:39:00,1838E-3,5C000000,-0724,0835,12066,027.1,045.5,0.485,735.1,01.18,0.508
2014-07-01 01:40:00,1771E-3,5C000000,-0724,0836,12065,027.1,045.5,0.485,735.2,01.18,0.508
2014-07-01 01:41:00,1773E-3,5C000000,-0724,0834,12014,027.1,045.4,0.485,735.1,01.18,0.508
2014-07-01 01:42:00,1857E-3,5C000000,-0724,0835,12084,027.1,045.5,0.485,735.1,01.18,0.508
2014-07-01 01:43:00,1788E-3,5C000000,-0724,0835,12211,027.1,045.5,0.485,735.1,01.18,0.508
2014-07-01 01:44:00,1775E-3,5C000000,-0724,0836,12360,027.0,045.4,0.486,735.1,01.18,0.508
2014-07-01 01:45:00,1892E-3,5C000000,-0724,0835,12206,027.0,045.5,0.485,735.1,01.18,0.508
2014-07-01 01:46:00,1762E-3,5C000000,-0724,0836,12150,027.0,045.5,0.485,735.1,01.18,0.508
2014-07-01 01:47:00,1842E-3,5C000000,-0724,0835,12201,027.0,045.5,0.485,735.1,01.18,0.508
2014-07-01 01:48:00,1776E-3,5C000000,-0724,0835,11921,027.0,045.5,0.485,735.1,01.18,0.508
2014-07-01 01:49:00,1763E-3,5C000000,-0724,0835,12153,027.0,045.5,0.486,735.2,01.18,0.508
2014-07-01 01:50:00,1749E-3,5C000000,-0724,0835,12271,027.0,045.5,0.485,735.2,01.18,0.508
2014-07-01 01:51:00,1791E-3,5C000000,-0724,0835,12122,027.0,045.5,0.485,735.1,01.18,0.508
2014-07-01 01:52:00,1745E-3,5C000000,-0724,0835,12059,027.0,045.5,0.486,735.1,01.18,0.508
2014-07-01 01:53:00,1839E-3,5C000000,-0724,0834,11936,027.0,045.4,0.485,735.2,01.18,0.508
2014-07-01 01:54:00,1814E-3,5C000000,-0724,0835,12199,027.0,045.5,0.486,735.1,01.18,0.508
2014-07-01 01:55:00,1968E-3,5C000000,-0724,0835,12015,027.0,045.4,0.485,735.1,01.18,0.508
2014-07-01 01:56:00,1919E-3,5C000000,-0724,0835,12240,027.0,045.5,0.486,735.2,01.18,0.508
2014-07-01 01:57:00,1744E-3,5C000000,-0724,0836,12287,026.9,045.5,0.486,735.2,01.18,0.508
2014-07-01 01:58:00,1843E-3,5C000000,-0724,0835,12250,026.9,045.5,0.485,735.1,01.18,0.508
2014-07-01 01:59:00,1798E-3,5C000000,-0724,0835,12151,026.9,045.4,0.486,735.2,01.18,0.508
2014-07-01 02:00:00,1777E-3,5C000000,-0724,0834,12105,026.9,045.5,0.485,735.1,01.18,0.508
2014-07-01 02:01:00,1881E-3,5C000000,-0724,0835,12250,026.9,045.5,0.486,735.1,01.18,0.508
2014-07-01 02:02:00,1756E-3,5C000000,-0724,0834,12163,026.9,045.5,0.485,735.1,01.18,0.508
2014-07-01 02:03:00,1964E-3,5C000000,-0724,0835,12161,026.9,045.5,0.485,735.1,01.18,0.508
2014-07-01 02:04:00,1850E-3,5C000000,-0724,0835,12061,026.9,045.5,0.486,735.2,01.18,0.508
2014-07-01 02:05:00,1732E-3,5C000000,-0724,0835,11999,026.9,045.5,0.485,735.2,01.18,0.508
2014-07-01 02:06:00,1783E-3,5C000000,-0724,0835,12060,026.9,045.5,0.486,735.2,01.18,0.508
2014-07-01 02:07:00,1856E-3,5C000000,-0724,0834,12139,026.9,045.4,0.485,735.2,01.18,0.508
2014-07-01 02:08:00,1904E-3,5C000000,-0724,0835,11873,026.9,045.5,0.486,735.2,01.18,0.508
2014-07-01 02:09:00,1902E-3,5C000000,-0724,0835,12191,026.9,045.5,0.486,735.2,01.18,0.508
2014-07-01 02:10:00,1770E-3,5C000000,-0724,0834,12174,026.8,045.5,0.485,735.2,01.18,0.508
2014-07-01 02:11:00,1845E-3,5C000000,-0724,0834,12101,026.9,045.5,0.486,735.2,01.18,0.508
2014-07-01 02:12:00,1888E-3,5C000000,-0724,0834,12082,026.9,045.5,0.485,735.3,01.18,0.508
2014-07-01 02:13:00,1862E-3,5C000000,-0724,0834,12053,026.8,045.5,0.486,735.2,01.18,0.508
2014-07-01 02:14:00,1876E-3,5C000000,-0724,0834,12134,026.8,045.5,0.485,735.3,01.18,0.508
2014-07-01 02:15:00,1821E-3,5C000000,-0724,0834,12082,026.8,045.5,0.486,735.3,01.18,0.508
2014-07-01 02:16:00,1781E-3,5C000000,-0724,0835,12124,026.8,045.5,0.486,735.2,01.18,0.508
2014-07-01 02:17:00,1778E-3,5C000000,-0724,0835,12056,026.8,045.5,0.486,735.2,01.18,0.508
2014-07-01 02:18:00,1777E-3,5C000000,-0724,0835,12181,026.8,045.5,0.486,735.2,01.18,0.508
2014-07-01 02:19:00,1716E-3,5C000000,-0724,0836,12177,026.8,045.5,0.485,735.2,01.18,0.508
2014-07-01 02:20:00,1794E-3,5C000000,-0724,0835,12092,026.8,045.5,0.486,735.3,01.18,0.508
2014-07-01 02:21:00,1820E-3,5C000000,-0724,0834,12291,026.8,045.5,0.485,735.2,01.18,0.508
2014-07-01 02:22:00,1711E-3,5C000000,-0724,0835,12186,026.8,045.5,0.486,735.2,01.18,0.508
2014-07-01 02:23:00,1771E-3,5C000000,-0724,0835,12116,026.8,045.5,0.485,735.2,01.18,0.508
2014-07-01 02:24:00,1846E-3,5C000000,-0724,0836,12395,026.8,045.5,0.486,735.2,01.18,0.508
2014-07-01 02:25:00,1762E-3,5C000000,-0724,0836,12081,026.8,045.5,0.486,735.2,01.18,0.508
2014-07-01 02:26:00,1872E-3,5C000000,-0724,0835,12024,026.8,045.5,0.486,735.2,01.18,0.508
2014-07-01 02:27:00,1842E-3,5C000000,-0724,0835,12081,026.8,045.5,0.486,735.3,01.18,0.508
2014-07-01 02:28:00,1859E-3,5C000000,-0724,0835,12189,026.8,045.5,0.485,735.3,01.18,0.508
2014-07-01 02:29:00,1726E-3,5C000000,-0724,0835,12012,026.8,045.5,0.486,735.3,01.18,0.508
2014-07-01 02:30:00,1807E-3,5C000000,-0724,0835,12104,026.8,045.4,0.485,735.3,01.18,0.508
2014-07-01 02:31:00,1796E-3,5C000000,-0724,0835,12100,026.8,045.4,0.486,735.3,01.18,0.508
2014-07-01 02:32:00,1718E-3,5C000000,-0724,0834,12190,026.7,045.5,0.485,735.3,01.18,0.508
2014-07-01 02:33:00,1905E-3,5C000000,-0724,0835,11998,026.7,045.4,0.486,735.2,01.18,0.508
2014-07-01 02:34:00,1761E-3,5C000000,-0724,0836,12108,026.8,045.4,0.486,735.3,01.18,0.508
2014-07-01 02:35:00,1816E-3,5C000000,-0724,0835,12051,026.7,045.4,0.485,735.2,01.18,0.508
2014-07-01 02:36:00,1883E-3,5C000000,-0724,0835,11977,026.7,045.4,0.486,735.2,01.18,0.508
2014-07-01 02:37:00,1803E-3,5C000000,-0724,0834,12142,026.7,045.4,0.486,735.2,01.18,0.508
2014-07-01 02:38:00,1822E-3,5C000000,-0724,0835,12261,026.7,045.4,0.486,735.2,01.18,0.508
2014-07-01 02:39:00,1851E-3,5C000000,-0724,0836,12079,026.7,045.5,0.485,735.2,01.18,0.508
2014-07-01 02:40:00,1741E-3,5C000000,-0724,0835,12139,026.7,045.5,0.486,735.2,01.18,0.508
2014-07-01 02:41:00,1763E-3,5C000000,-0724,0835,12175,026.7,045.5,0.485,735.2,01.18,0.508
2014-07-01 02:42:00,1829E-3,5C000000,-0724,0836,11916,026.7,045.5,0.486,735.3,01.18,0.508
2014-07-01 02:43:00,1724E-3,5C000000,-0724,0834,12147,026.7,045.5,0.485,735.2,01.18,0.508
2014-07-01 02:44:00,1781E-3,5C000000,-0724,0835,12049,026.7,045.5,0.486,735.2,01.18,0.508
2014-07-01 02:45:00,1848E-3,5C000000,-0724,0835,12188,026.7,045.4,0.485,735.2,01.18,0.508
2014-07-01 02:46:00,1854E-3,5C000000,-0724,0835,12280,026.7,045.5,0.486,735.3,01.18,0.508
2014-07-01 02:47:00,1908E-3,5C000000,-0724,0835,12206,026.7,045.5,0.486,735.2,01.18,0.508
2014-07-01 02:48:00,1951E-3,5C000000,-0724,0834,12014,026.7,045.5,0.486,735.2,01.18,0.508
2014-07-01 02:49:00,1929E-3,5C000000,-0724,0835,12221,026.7,045.4,0.486,735.2,01.18,0.508
2014-07-01 02:50:00,1800E-3,5C000000,-0724,0835,12259,026.7,045.4,0.486,735.2,01.18,0.508
2014-07-01 02:51:00,1832E-3,5C000000,-0724,0835,12106,026.7,045.5,0.486,735.2,01.18,0.508
2014-07-01 02:52:00,1836E-3,5C000000,-0724,0834,12135,026.7,045.5,0.486,735.2,01.18,0.508
2014-07-01 02:53:00,1929E-3,5C000000,-0724,0836,11932,026.7,045.5,0.486,735.2,01.18,0.508
2014-07-01 02:54:00,1831E-3,5C000000,-0724,0835,12023,026.7,045.5,0.486,735.3,01.18,0.508
2014-07-01 02:55:00,1899E-3,5C000000,-0724,0836,12229,026.7,045.5,0.486,735.3,01.18,0.508
2014-07-01 02:56:00,1832E-3,5C000000,-0724,0836,12157,026.7,045.4,0.486,735.2,01.18,0.508
2014-07-01 02:57:00,1796E-3,5C000000,-0724,0835,12247,026.7,045.5,0.486,735.3,01.18,0.508
2014-07-01 02:58:00,1789E-3,5C000000,-0724,0835,12182,026.7,045.5,0.486,735.3,01.18,0.508
2014-07-01 02:59:00,1872E-3,5C000000,-0724,0835,12228,026.7,045.4,0.486,735.3,01.18,0.508
2014-07-01 03:00:00,1815E-3,5C000000,-0724,0835,12191,026.7,045.4,0.486,735.3,01.18,0.508
2014-07-01 03:01:00,1797E-3,5C000000,-0724,0834,12198,026.7,045.4,0.486,735.3,01.18,0.508
2014-07-01 03:02:00,1930E-3,5C000000,-0724,0834,12190,026.7,045.5,0.486,735.3,01.18,0.508
2014-07-01 03:03:00,1781E-3,5C000000,-0724,0835,12195,026.7,045.5,0.486,735.3,01.18,0.508
2014-07-01 03:04:00,1849E-3,5C000000,-0724,0835,12191,026.7,045.5,0.486,735.3,01.18,0.508
2014-07-01 03:05:00,1768E-3,5C000000,-0724,0836,12112,026.7,045.5,0.486,735.3,01.18,0.508
2014-07-01 03:06:00,1782E-3,5C000000,-0724,0835,12061,026.7,045.5,0.486,735.3,01.18,0.508
2014-07-01 03:07:00,1931E-3,5C000000,-0724,0836,11999,026.7,045.5,0.486,735.3,01.18,0.508
2014-07-01 03:08:00,1763E-3,5C000000,-0724,0835,12187,026.7,045.5,0.486,735.3,01.18,0.508
2014-07-01 03:09:00,1915E-3,5C000000,-0724,0835,12084,026.7,045.5,0.486,735.3,01.18,0.508
2014-07-01 03:10:00,1727E-3,5C000000,-0724,0835,12145,026.6,045.5,0.486,735.3,01.18,0.508
2014-07-01 03:11:00,1754E-3,5C000000,-0724,0835,12201,026.6,045.5,0.486,735.4,01.18,0.508
2014-07-01 03:12:00,1941E-3,5C000000,-0724,0835,12159,026.7,045.5,0.486,735.4,01.18,0.508
2014-07-01 03:13:00,1840E-3,5C000000,-0724,0835,12165,026.7,045.5,0.486,735.4,01.18,0.508
2014-07-01 03:14:00,1915E-3,5C000000,-0724,0835,12099,026.7,045.5,0.486,735.4,01.18,0.508
2014-07-01 03:15:00,1881E-3,5C000000,-0724,0835,12211,026.7,045.4,0.486,735.4,01.18,0.508
2014-07-01 03:16:00,1788E-3,5C000000,-0724,0836,12223,026.6,045.5,0.486,735.4,01.18,0.508
2014-07-01 03:17:00,1580E-3,5C000000,-0724,0834,12205,026.6,045.5,0.486,735.5,01.18,0.508
2014-07-01 03:18:00,1680E-3,5C000000,-0724,0835,12173,026.6,045.5,0.486,735.5,01.18,0.508
2014-07-01 03:19:00,1741E-3,5C000000,-0724,0836,12150,026.6,045.5,0.486,735.5,01.18,0.508
2014-07-01 03:20:00,1733E-3,5C000000,-0724,0834,12139,026.6,045.5,0.486,735.5,01.18,0.508
2014-07-01 03:21:00,1821E-3,5C000000,-0724,0836,12200,026.6,045.4,0.486,735.5,01.18,0.508
2014-07-01 03:22:00,1854E-3,5C000000,-0724,0833,11854,026.6,045.5,0.486,735.5,01.18,0.508
2014-07-01 03:23:00,1882E-3,5C000000,-0724,0836,12209,026.6,045.5,0.486,735.5,01.18,0.508
2014-07-01 03:24:00,1773E-3,5C000000,-0724,0835,12123,026.6,045.5,0.486,735.5,01.18,0.508
2014-07-01 03:25:00,1878E-3,5C000000,-0724,0835,12197,026.6,045.5,0.486,735.5,01.18,0.508
2014-07-01 03:26:00,1766E-3,5C000000,-0724,0835,12229,026.6,045.4,0.486,735.5,01.18,0.508
2014-07-01 03:27:00,1866E-3,5C000000,-0724,0835,12155,026.6,045.4,0.486,735.5,01.18,0.508
2014-07-01 03:28:00,1784E-3,5C000000,-0724,0834,12058,026.6,045.5,0.486,735.5,01.18,0.508
2014-07-01 03:29:00,1780E-3,5C000000,-0724,0835,12167,026.6,045.5,0.486,735.5,01.18,0.508
2014-07-01 03:30:00,1787E-3,5C000000,-0724,0835,12114,026.6,045.5,0.486,735.4,01.18,0.508
2014-07-01 03:31:00,1789E-3,5C000000,-0724,0835,12006,026.6,045.5,0.486,735.5,01.18,0.508
2014-07-01 03:32:00,1760E-3,5C000000,-0724,0834,12225,026.6,045.4,0.486,735.5,01.18,0.508
2014-07-01 03:33:00,1898E-3,5C000000,-0724,0834,12306,026.6,045.5,0.486,735.5,01.18,0.508
2014-07-01 03:34:00,1853E-3,5C000000,-0724,0835,12045,026.6,045.5,0.486,735.5,01.18,0.508
2014-07-01 03:35:00,1843E-3,5C000000,-0724,0835,12032,026.6,045.5,0.486,735.5,01.18,0.508
2014-07-01 03:36:00,1682E-3,5C000000,-0724,0835,12138,026.6,045.5,0.486,735.5,01.18,0.508
2014-07-01 03:37:00,1785E-3,5C000000,-0724,0834,12168,026.6,045.5,0.486,735.5,01.18,0.508
2014-07-01 03:38:00,1738E-3,5C000000,-0724,0835,12302,026.6,045.5,0.486,735.5,01.18,0.508
2014-07-01 03:39:00,1799E-3,5C000000,-0724,0835,11956,026.6,045.5,0.486,735.5,01.18,0.508
2014-07-01 03:40:00,1763E-3,5C000000,-0724,0835,12238,026.6,045.5,0.486,735.5,01.18,0.508
2014-07-01 03:41:00,1835E-3,5C000000,-0724,0835,12218,026.6,045.4,0.486,735.5,01.18,0.508
2014-07-01 03:42:00,1885E-3,5C000000,-0724,0834,12215,026.6,045.4,0.486,735.5,01.18,0.508
2014-07-01 03:43:00,1895E-3,5C000000,-0724,0835,12124,026.6,045.4,0.486,735.5,01.18,0.508
2014-07-01 03:44:00,1797E-3,5C000000,-0724,0835,11910,026.6,045.4,0.486,735.5,01.18,0.508
2014-07-01 03:45:00,1828E-3,5C000000,-0724,0835,12082,026.6,045.5,0.486,735.5,01.18,0.508
2014-07-01 03:46:00,1710E-3,5C000000,-0724,0835,12061,026.6,045.5,0.486,735.5,01.18,0.508
2014-07-01 03:47:00,1794E-3,5C000000,-0724,0836,12251,026.6,045.5,0.486,735.5,01.18,0.508
2014-07-01 03:48:00,1802E-3,5C000000,-0724,0835,12210,026.6,045.5,0.486,735.5,01.18,0.508
2014-07-01 03:49:00,1687E-3,5C000000,-0724,0834,12072,026.6,045.5,0.486,735.4,01.18,0.508
2014-07-01 03:50:00,1870E-3,5C000000,-0724,0834,12108,026.6,045.5,0.486,735.5,01.18,0.508
2014-07-01 03:51:00,1997E-3,5C000000,-0724,0836,12202,026.7,045.5,0.486,735.5,01.18,0.508
2014-07-01 03:52:00,1866E-3,5C000000,-0724,0836,12232,026.6,045.5,0.486,735.5,01.18,0.508
2014-07-01 03:53:00,1930E-3,5C000000,-0724,0835,12014,026.6,045.4,0.486,735.5,01.18,0.508
2014-07-01 03:54:00,1787E-3,5C000000,-0724,0836,12112,026.6,045.4,0.486,735.5,01.18,0.508
2014-07-01 03:55:00,1829E-3,5C000000,-0724,0836,12301,026.7,045.4,0.486,735.5,01.18,0.508
2014-07-01 03:56:00,1664E-3,5C000000,-0724,0835,12073,026.7,045.5,0.486,735.5,01.18,0.508
2014-07-01 03:57:00,1856E-3,5C000000,-0724,0834,12186,026.7,045.5,0.486,735.5,01.18,0.508
2014-07-01 03:58:00,1791E-3,5C000000,-0724,0835,12231,026.7,045.4,0.486,735.5,01.18,0.508
2014-07-01 03:59:00,1838E-3,5C000000,-0724,0835,12129,026.7,045.5,0.486,735.5,01.18,0.508
2014-07-01 04:00:00,1828E-3,5C000000,-0724,0836,12244,026.7,045.5,0.486,735.5,01.18,0.508
2014-07-01 04:01:00,1847E-3,5C000000,-0724,0836,12309,026.7,045.5,0.486,735.6,01.18,0.508
2014-07-01 04:02:00,1792E-3,5C000000,-0724,0835,12132,026.7,045.4,0.486,735.6,01.18,0.508
2014-07-01 04:03:00,1798E-3,5C000000,-0724,0834,12120,026.7,045.5,0.486,735.6,01.18,0.508
2014-07-01 04:04:00,1850E-3,5C000000,-0724,0834,12110,026.7,045.4,0.486,735.5,01.18,0.508
2014-07-01 04:05:00,1887E-3,5C000000,-0724,0835,12226,026.7,045.4,0.486,735.6,01.18,0.508
2014-07-01 04:06:00,1865E-3,5C000000,-0724,0836,12273,026.7,045.5,0.486,735.6,01.18,0.508
2014-07-01 04:07:00,1645E-3,5C000000,-0724,0836,12284,026.7,045.4,0.486,735.5,01.18,0.508
2014-07-01 04:08:00,1780E-3,5C000000,-0724,0835,12252,026.7,045.4,0.486,735.6,01.18,0.508
2014-07-01 04:09:00,1834E-3,5C000000,-0724,0835,12039,026.7,045.5,0.486,735.6,01.18,0.508
2014-07-01 04:10:00,1802E-3,5C000000,-0724,0836,12060,026.7,045.5,0.486,735.6,01.18,0.508
2014-07-01 04:11:00,1681E-3,5C000000,-0724,0835,12258,026.7,045.5,0.485,735.6,01.18,0.508
2014-07-01 04:12:00,1719E-3,5C000000,-0724,0835,12154,026.7,045.5,0.486,735.6,01.18,0.508
2014-07-01 04:13:00,1773E-3,5C000000,-0724,0835,12321,026.7,045.5,0.486,735.6,01.18,0.508
2014-07-01 04:14:00,1816E-3,5C000000,-0724,0836,12223,026.7,045.4,0.486,735.6,01.18,0.508
2014-07-01 04:15:00,1816E-3,5C000000,-0724,0835,11983,026.7,045.5,0.486,735.6,01.18,0.508
2014-07-01 04:16:00,1689E-3,5C000000,-0724,0834,12261,026.7,045.4,0.486,735.6,01.18,0.508
2014-07-01 04:17:00,1837E-3,5C000000,-0724,0834,12151,026.8,045.5,0.486,735.6,01.18,0.508
2014-07-01 04:18:00,1790E-3,5C000000,-0724,0835,12219,026.8,045.5,0.486,735.6,01.18,0.508
2014-07-01 04:19:00,1858E-3,5C000000,-0724,0834,12238,026.7,045.5,0.486,735.6,01.18,0.508
2014-07-01 04:20:00,1867E-3,5C000000,-0724,0835,12265,026.8,045.5,0.485,735.6,01.18,0.508